Regional Weather Roundup
Issued by NWS

Home | Current Version | Previous Version | Graphics & Text | Print | Product List | Glossary On
Versions: 1 2 3 4 5 6 7 8 9 10 11 12 13 14 15 16 17 18 19 20 21 22 23 24 25 26 27 28 29 30 31 32 33 34 35 36 37 38 39 40 41 42 43 44 45 46 47 48 49 50
000
ASUS44 KMEG 291210
RWRTN
TENNESSEE HOURLY STATE WEATHER ROUNDUP
NATIONAL WEATHER SERVICE MEMPHIS TN
700 AM CDT TUE JUL 29 2014

TNZ002-004-019-021-049-052-054-088>092-291300-
WEST TENNESSEE

CITY           SKY/WX    TMP DP  RH WIND       PRES   REMARKS
MEMPHIS INTL   PTCLDY    69  58  67 N8        30.11R
NWS MEMPHIS      N/A     67 N/A N/A MISG        N/A
JACKSON        SUNNY     63  57  81 N5        30.11R
DYERSBURG      SUNNY     63  52  67 N3        30.12S
UNION CITY     SUNNY     59  55  88 CALM      30.11R
PARIS          SUNNY     55  53  93 N3        30.11S
LEXINGTON      SUNNY     59  55  88 N6        30.09R
SAVANNAH       SUNNY     62  62 100 CALM      30.09R
$$

TNZ008-025-027-028-033-062-065-066-291300-
NORTH MIDDLE TENNESSEE

CITY           SKY/WX    TMP DP  RH WIND       PRES   REMARKS
NASHVILLE      MOSUNNY   62  51  67 N9        30.08R
DICKSON        SUNNY     55  52  88 N5        30.09R
PORTLAND       SUNNY     54  52  94 N5        30.07
CLARKSVILLE    SUNNY     59  53  80 N7        30.10R
LEBANON        SUNNY     59  52  77 N5        30.06R
SMYRNA         SUNNY     62  53  72 N9        30.09R
MURFREESBORO   SUNNY     62  55  77 NW6       30.06R
COOKEVILLE       N/A     59  57  94 CALM      30.05R
LIVINGSTON     PTSUNNY   58  56  93 N3        30.06R
CROSSVILLE     CLOUDY    59  57  93 N9        30.06R FOG
$$

TNZ061-075-076-078-094-096-097-291300-
SOUTH MIDDLE TENNESSEE

CITY           SKY/WX    TMP DP  RH WIND       PRES   REMARKS
LEWISBURG      SUNNY     61  56  83 N3        30.06R
FAYETTEVILLE   SUNNY     61  55  82 N13G28    30.06R
TULLAHOMA      SUNNY     61  55  82 N8        30.06S
WINCHESTER     SUNNY     63  57  82 CALM      30.05R
MCMINNVILLE    SUNNY     61  61 100 CALM      30.05S
COLUMBIA       SUNNY     63  57  82 NW3       30.07R
SHELBYVILLE    SUNNY     61  57  88 N7        30.07R
$$

TNZ017-018-042-046-047-291300-
NORTHEAST TENNESSEE

CITY           SKY/WX    TMP DP  RH WIND       PRES   REMARKS
TRI CITIES     MOSUNNY   60  56  86 CALM      30.03R
ELIZABETHTON   MOSUNNY   57  57 100 CALM        N/A
$$

TNZ012-013-036-069-073-074-291300-
CENTRAL EAST TENNESSEE

CITY           SKY/WX    TMP DP  RH WIND       PRES   REMARKS
KNOXVILLE      MOSUNNY   64  60  87 NE5       30.01R
OAK RIDGE      PTSUNNY   63  60  90 CALM      30.03R
GATLINBURG     PTSUNNY   61  59  94 CALM      30.01S
MORRISTOWN     SUNNY     61  61 100 CALM      30.03R
$$

TNZ083-085-099-291300-
SOUTHEAST TENNESSEE

CITY           SKY/WX    TMP DP  RH WIND       PRES   REMARKS
CHATTANOOGA    MOSUNNY   67  59  75 NW6       30.02R
$$

SKY/WX REPORTED AS FAIR MEANS FEW OR NO CLOUDS BELOW
12 THOUSAND FEET.



USA.gov is the U.S. government's official web portal to all federal, state and local government web resources and services.